Content
SEND FEEDBACK

Daily
Averages
Monthly
Summary
United States of America

DEWEYVILLE, TEXAS


Home > North America > United States > Texas
Elevation: 30 feet     Latitude: 30 18N     Longitude: 093 45W

WEATHER
 
SELECT A DAY
Number of Records: 109,680;   Date Range: 8/25/05 - 9/1/14
 
SHARE

PRINT THIS DATA

[ ← Previous Day ]
WEATHER ALMANAC - NOVEMBER 1, 2013
[ Next Day → ]
[ °C ]   °F
Weather ElementAverageHighLow
Temperature63.3 °F76.1 °F (3:35 pm)57.4 °F (10:35 pm)
Dewpoint57.4 °F61.7 °F (10:15 am)44.4 °F (2:55 pm)
Humidity84.9 %99 % (12:35 am)33 % (3:15 pm)
Barometer29.92 in29.98 in (10:55 am)29.86 in (5:15 pm)
Wind Speed1.6 mph5.8 mph (10:35 am)
Weather ElementAverage
Visibility6.4 mi
Wind DirectionENE (65.4 °)

Weather ElementTotal
Precipitation---
Cooling Degree Days1.8 (Base 65)
Growing Degree Days16.8 (Base 50)
Averaged from 67 records on November 1, 2013
WEATHER CONDITIONS BREAKOUT
WIND DIRECTION BREAKOUT
WEATHER BY HOUR - NOVEMBER 1, 2013
[ °C ]   °F
Local TimeTemperatureDewpointHumidityBarometerVisibilityWind DirectionWind SpeedGust SpeedPrecipitationEventsConditions
12:35 AM59.0 °F58.6 °F99 %29.90 in0.8 miWest (260°)3.5 mphMist
12:55 AM59.0 °F58.5 °F98 %29.91 in0.5 miCalmFogFog
1:15 AM58.1 °F57.7 °F99 %29.90 in0.5 miCalmFogFog
1:35 AM58.3 °F57.9 °F99 %29.90 in0.8 miCalmMist
1:55 AM59.4 °F58.8 °F98 %29.91 in0.5 miCalmFogFog
2:15 AM59.5 °F59.2 °F99 %29.91 in0.8 miCalmMist
2:35 AM59.4 °F59.0 °F99 %29.90 in0.5 miCalmFogFog
2:55 AM60.3 °F59.9 °F99 %29.90 in1.0 miCalmMist
3:15 AM59.5 °F59.2 °F99 %29.90 in0.5 miNW (310°)3.5 mphFogFog
3:35 AM60.1 °F59.7 °F99 %29.90 in0.2 miNW (310°)3.5 mphFogFog
3:55 AM59.9 °F59.5 °F99 %29.90 in0.2 miWNW (300°)3.5 mphFogFog
4:15 AM60.1 °F59.9 °F99 %29.90 in0.2 miNW (320°)3.5 mphFogFog
4:35 AM60.3 °F59.9 °F99 %29.90 in0.2 miNW (320°)3.5 mphFogFog
4:55 AM60.6 °F60.3 °F99 %29.90 in0.5 miNW (320°)3.5 mphFogFog
5:15 AM60.8 °F60.3 °F98 %29.91 in7.0 miNorth (10°)4.6 mphOvercast
5:35 AM59.9 °F59.5 °F99 %29.91 in10.0 miNNE (20°)4.6 mphOvercast
5:55 AM59.2 °F59.0 °F99 %29.90 in10.0 miNNE (30°)3.5 mphOvercast
6:15 AM59.0 °F58.6 °F99 %29.90 in5.0 miNorth (10°)3.5 mphOvercast
6:35 AM59.7 °F59.4 °F99 %29.90 in1.8 miCalmOvercast
6:55 AM59.0 °F58.8 °F99 %29.91 in0.8 miCalmOvercast
7:15 AM59.4 °F59.0 °F99 %29.91 in0.2 miCalmFogFog
7:35 AM59.5 °F59.2 °F99 %29.90 in0.2 miCalmFogFog
7:55 AM58.8 °F58.5 °F99 %29.90 in0.5 miCalmFogFog
8:15 AM58.5 °F58.1 °F99 %29.92 in0.2 miCalmFogFog
8:35 AM58.5 °F58.1 °F99 %29.93 in0.2 miCalmFogFog
8:55 AM58.5 °F58.1 °F99 %29.94 in0.5 miCalmFogFog
9:15 AM59.2 °F58.8 °F99 %29.95 in2.5 miCalmOvercast
9:35 AM59.9 °F59.4 °F98 %29.96 in7.0 miCalmScattered Clouds
9:55 AM61.3 °F61.2 °F99 %29.97 in10.0 miNE (50°)3.5 mphClear
10:15 AM61.9 °F61.7 °F99 %29.97 in10.0 miNE (50°)4.6 mphClear
10:35 AM62.6 °F61.7 °F97 %29.97 in10.0 miEast (80°)5.8 mphClear
10:55 AM63.7 °F61.2 °F91 %29.98 in10.0 miEast (100°)5.8 mphClear
11:15 AM66.4 °F59.2 °F78 %29.98 in10.0 miENE (70°)3.5 mphClear
11:35 AM68.2 °F59.2 °F73 %29.98 in10.0 miENE (60°)4.6 mphClear
11:55 AM69.3 °F58.8 °F69 %29.97 in10.0 miESE (120°)3.5 mphClear
12:15 PM70.2 °F54.9 °F58 %29.96 in10.0 miCalmClear
12:35 PM71.4 °F54.5 °F55 %29.95 in10.0 miSE (140°)3.5 mphClear
12:55 PM71.8 °F55.4 °F56 %29.94 in10.0 miSSE (160°)3.5 mphClear
1:15 PM72.3 °F55.4 °F55 %29.93 in10.0 miSouth (170°)3.5 mphClear
1:35 PM73.8 °F55.2 °F52 %29.92 in10.0 miESE (120°)3.5 mphClear
1:55 PM73.8 °F56.8 °F55 %29.91 in10.0 miSouth (170°)3.5 mphClear
2:15 PM74.1 °F49.8 °F42 %29.90 in10.0 miSouth (170°)3.5 mphClear
2:35 PM74.7 °F49.8 °F42 %29.89 in10.0 miCalmClear
2:55 PM75.0 °F44.4 °F34 %29.88 in10.0 miCalmClear
3:15 PM75.7 °F44.6 °F33 %29.88 in10.0 miWSW (240°)3.5 mphClear
3:35 PM76.1 °F45.7 °F34 %29.88 in10.0 miCalmClear
5:15 PM75.9 °F46.8 °F36 %29.86 in10.0 miSSE (160°)3.5 mphClear
5:35 PM74.7 °F53.2 °F47 %29.86 in10.0 miSSE (150°)4.6 mphClear
5:55 PM73.8 °F54.3 °F51 %29.86 in10.0 miSSE (160°)3.5 mphClear
6:15 PM72.0 °F57.4 °F60 %29.86 in10.0 miCalmClear
6:35 PM66.7 °F57.7 °F73 %29.87 in10.0 miCalmClear
6:55 PM64.9 °F58.3 °F79 %29.88 in10.0 miCalmClear
7:15 PM62.2 °F59.0 °F89 %29.88 in10.0 miCalmClear
7:35 PM60.6 °F58.8 °F94 %29.90 in10.0 miCalmClear
7:55 PM60.3 °F58.8 °F95 %29.91 in10.0 miCalmClear
8:15 PM60.1 °F58.8 °F96 %29.91 in10.0 miCalmClear
8:35 PM59.7 °F58.5 °F96 %29.92 in10.0 miCalmClear
8:55 PM60.1 °F59.0 °F96 %29.94 in10.0 miCalmClear
9:15 PM59.5 °F58.6 °F97 %29.94 in10.0 miCalmClear
9:35 PM58.6 °F57.9 °F97 %29.94 in10.0 miCalmClear
9:55 PM58.1 °F57.6 °F98 %29.94 in7.0 miCalmClear
10:15 PM58.3 °F57.7 °F98 %29.95 in7.0 miCalmClear
10:35 PM57.4 °F56.8 °F98 %29.95 in5.0 miCalmClear
10:55 PM57.4 °F57.2 °F99 %29.95 in10.0 miCalmClear
11:15 PM57.9 °F57.6 °F99 %29.95 in10.0 miCalmClear
11:35 PM58.3 °F58.1 °F99 %29.95 in10.0 miCalmScattered Clouds
11:55 PM59.2 °F58.8 °F99 %29.95 in10.0 miCalmMostly Cloudy
Hourly data recorded from KORG, located miles away from Deweyville, Texas







STORIES FROM OUR PARTNERS